User: anonymous   Login
Location: LDNL
(36.4545°S, 141.6685°E)
Time: 22:20:17
(UTC+11:00)
Language:

Transit 2A Rocket - Orbit

View from above orbital plane
View from above orbital plane
View from above satellite
View from above satellite

Ground track
Ground track

The orbit data is extracted from the following two-line orbital elements,

1 00047U 60007C   24053.68781132  .00000393  00000-0  11138-3 0  9996
2 00047  66.6658 155.9724 0219917  36.9948 324.6092 14.43310096328696
Epoch (UTC): 22 February 2024 16:30:26
Eccentricity: 0.0219917
inclination: 66.6658°
perigee height: 591 km
apogee height: 904 km
right ascension of ascending node: 155.9724°
argument of perigee: 36.9948°
revolutions per day: 14.43310096
mean anomaly at epoch: 324.6092°
orbit number at epoch: 32869

The dashed part of the orbit path shows where the satellite is in the earth's shadow,  

DLR